Probability
0 0 0 0 0 0 0 0 0 0 0 0 0 0 0 0 0 0 0 0 0 0 0 0 0 0 0 0 0 0 0 0 0 0 0 0 0 0 0 0 0 0 0
0 0 0 0 0 0 0 0 0 0 0 0 0 0 0 0 0 0 0 0 0 0 0 0 0 0 0 0 0 0 0 0 0 0 0 0 0 0 0 0 0 0 0
0 0 0 0 0 0 0 0 0 0 0 0 0 0 0 0 0 0 0 0 0 0 0 0 0 0 0 0 0 0 0 0 0 0 0 0 0 0 0 0 0 0 0
0 0 0 0 0 0 0 0 0 0 0 0 0 0 0 0 0 0 0 0 0 0 0 0 0 0 0 0 0 0 0 0 0 0 0 0 0 0 0 0 0 0 0
0 0 0 0 0 0 0 0 0 0 0 0 0 0 0 0 0 0 0 0 0 0 0 0 0 0 0 0 0 0 0 0 0 0 0 0 0 0 0 0 0 0 0
0 0 0 0 0 0 0 0 0 0 0 0 0 0 0 0 0 0 0 0 0 0 0 0 0 0 0 0 0 0 0 0 0 0 0 0 0 0 0 0 0 0 0
0 0 0 0 0 0 0 0 0 0 0 0 0 0 0 0 0 0 0 0 0 0 0 0 0 0 0 0 0 0 0 0 0 0 0 0 0 0 0 0 0 0 0
0 0 0 0 0 0 0 0 0 0 0 0 0 0 0 0 0 0 0 0 0 0 0 0 0 0 0 0 0 0 0 0 0 0 0 0 0 0 0 0 0 0 0
0 0 0 0 0 0 0 0 0 0 0 0 0 0 0 0 0 0 0 0 0 0 0 0 0 0 0 0 0 0 0 0 0 0 0 0 0 0 0 0 0 0 0
0 0 0 0 0 0 0 0 0 0 0 0 0 0 0 0 0 0 0 0 0 0 0 0 0 0 0 0 0 0 0 0 0 0 0 0 0 0 0 0 0 0 0
0 0 0 0 0 0 0 0 0 0 0 0 0 0 0 0 0 0 0 0 0 0 0 0 0 0 0 0 0 0 0 0 0 0 0 0 0 0 0 0 0 0 0
0 0 0 0 0 0 0 0 0 0 0 0 0 0 0 0 0 0 0 0 0 0 0 0 0 0 0 0 0 0 0 0 0 0 0 0 0 0 0 0 0 0 0
0 0 0 0 0 0 0 0 0 0 0 0 0 0 0 0 0 0 0 0 0 0 0 0 0 0 0 0 0 0 0 0 0 0 0 0 0 0 0 0 0 0 0
0 0 0 0 0 0 0 0 0 0 0 0 0 0 0 0 0 0 0 0 0 0 0 0 0 0 0 0 0 0 0 0 0 0 0 0 0 0 0 0 0 0 0
0 0 0 0 0 0 0 0 0 0 0 0 0 0 0 0 0 0 0 0 0 0 0 0 0 0 0 0 0 0 0 0 0 0 0 0 0 0 0 0 0 0 0
0 0 0 0 0 0 0 0 0 0 0 0 0 0 0 0 0 0 0 0 0 0 0 0 0 0 0 0 0 0 0 0 0 0 0 0 0 0 0 0 0 0 0
0 0 0 0 0 0 0 0 0 0 0 0 0 0 0 0 0 0 0 0 0 0 0 0 0 0 0 0 0 0 0 0 0 0 0 0 0 0 0 0 0 0 0
0 0 0 0 0 0 0 0 0 0 0 0 0 0 0 0 0 0 0 0 0 0 0 0 0 0 0 0 0 0 0 0 0 0 0 0 0 0 0 0 0 0 0
0 0 0 0 0 0 0 0 0 0 0 0 0 0 0 0 0 0 0 0 0 0 0 0 0 0 0 0 0 0 0 0 0 0 0 0 0 0 0 0 0 0 0
0 0 0 0 0 0 0 0 0 0 0 0 0 0 0 0 0 0 0 0 0 0 0 0 0 0 0 0 0 0 0 0 0 0 0 0 0 0 0 0 0 0 0
0 0 0 0 0 0 0 0 0 0 0 0 0 0 0 0 0 0 0 0 0 0 0 0 0 0 0 0 0 0 0 0 0 0 0 0 0 0 0 0 0 0 0
0 0 0 0 0 0 0 0 0 0 0 0 0 0 0 0 0 0 0 0 0 0 0 0 0 0 0 0 0 0 0 0 0 0 0 0 0 0 0 0 0 0 0
0 0 0 0 0 0 0 0 0 0 0 0 0 0 0 0 0 0 0 0 0 0 0 0 0 0 0 0 0 0 0 0 0 0 0 0 0 0 0 0 0 0 0
0 0 0 0 0 0 0 0 0 0 0 0 0 0 0 0 0 0 0 0 0 0 0 0 0 0 0 0 0 0 0 0 0 0 0 0 0 0 0 0 0 0 0
0 0 0 0 0 0 0 0 0 0 0 0 0 0 0 0 0 0 0 0 0 0 0 0 0 0 0 0 0 0 0 0 0 0 0 0 0 0 0 0 0 0 0
0 0 0 0 0 0 0 0 0 0 0 0 0 0 0 0 0 0 0 0 0 0 0 0 0 0 0 0 0 0 0 0 0 0 0 0 0 0 0 0 0 0 0
Height
5748 5749 5749 5750 5750 5751 5751 5752 5753 5754 5755 5756 5757 5757 5758 5758 5759 5760 5761 5762 5763 5763 5764 5764 5765 5766 5766 5766 5766 5766 5766 5766 5765 5763 5762 5760 5758 5756 5754 5752 5749 5746 5743
5741 5742 5742 5743 5743 5744 5744 5745 5746 5747 5747 5748 5749 5750 5750 5751 5752 5752 5753 5754 5755 5755 5756 5756 5757 5757 5757 5758 5758 5758 5757 5756 5756 5754 5752 5751 5749 5747 5744 5742 5739 5736 5734
5735 5735 5735 5736 5736 5736 5737 5738 5738 5739 5740 5740 5741 5742 5743 5743 5744 5745 5745 5746 5747 5747 5748 5748 5749 5749 5749 5750 5749 5749 5748 5747 5746 5745 5743 5741 5739 5737 5735 5732 5730 5727 5724
5728 5728 5728 5729 5729 5729 5730 5731 5731 5732 5732 5733 5734 5734 5735 5736 5737 5737 5738 5738 5739 5740 5740 5741 5741 5741 5741 5741 5741 5740 5739 5738 5737 5736 5734 5732 5730 5728 5726 5723 5721 5718 5715
5722 5722 5722 5722 5722 5723 5723 5724 5724 5725 5726 5726 5727 5728 5728 5729 5730 5730 5731 5731 5732 5732 5733 5733 5733 5733 5733 5733 5732 5731 5730 5729 5728 5727 5725 5723 5721 5719 5717 5714 5712 5710 5707
5716 5716 5716 5716 5716 5717 5717 5717 5718 5718 5719 5720 5720 5721 5722 5722 5723 5723 5724 5724 5725 5725 5726 5726 5726 5726 5725 5724 5724 5723 5722 5721 5719 5718 5716 5714 5713 5711 5709 5707 5705 5702 5700
5711 5711 5711 5711 5711 5711 5711 5712 5712 5713 5713 5714 5714 5715 5716 5716 5716 5717 5717 5718 5718 5718 5718 5718 5718 5718 5717 5717 5716 5715 5714 5713 5711 5710 5708 5706 5705 5703 5701 5699 5697 5695 5693
5707 5707 5706 5706 5706 5707 5707 5707 5707 5708 5708 5709 5709 5709 5710 5710 5711 5711 5711 5711 5711 5712 5711 5711 5711 5711 5710 5709 5709 5707 5706 5705 5703 5702 5700 5699 5697 5695 5694 5692 5690 5688 5686
5703 5703 5703 5702 5702 5702 5702 5702 5702 5703 5703 5704 5704 5704 5705 5705 5705 5705 5705 5705 5705 5705 5705 5704 5704 5703 5703 5702 5701 5700 5699 5697 5696 5695 5693 5692 5690 5689 5687 5685 5684 5682 5680
5699 5699 5699 5699 5699 5699 5699 5698 5698 5699 5699 5699 5700 5700 5700 5700 5700 5700 5700 5700 5699 5699 5699 5698 5698 5697 5696 5695 5695 5693 5692 5691 5689 5688 5687 5685 5684 5682 5681 5679 5678 5676 5675
5696 5696 5696 5695 5695 5695 5695 5695 5695 5695 5696 5696 5696 5696 5696 5696 5695 5695 5695 5694 5694 5694 5693 5693 5692 5691 5690 5689 5688 5687 5686 5684 5683 5682 5681 5679 5678 5677 5675 5674 5672 5671 5670
5693 5693 5693 5693 5693 5692 5693 5693 5693 5693 5693 5693 5693 5693 5693 5692 5692 5691 5690 5690 5689 5689 5688 5688 5687 5686 5685 5684 5683 5682 5680 5679 5678 5677 5676 5674 5673 5671 5670 5669 5668 5667 5666
5692 5692 5691 5691 5691 5691 5690 5690 5690 5690 5690 5690 5690 5690 5690 5689 5688 5688 5687 5686 5685 5685 5684 5683 5682 5682 5681 5679 5678 5677 5676 5675 5674 5672 5671 5670 5669 5667 5666 5665 5665 5664 5663
5691 5690 5690 5690 5689 5689 5689 5689 5689 5689 5688 5688 5688 5688 5687 5687 5686 5685 5684 5683 5682 5682 5681 5680 5679 5678 5677 5676 5675 5673 5672 5671 5670 5668 5667 5666 5665 5664 5663 5663 5662 5661 5661
5690 5690 5689 5689 5689 5689 5689 5689 5688 5688 5688 5687 5687 5687 5686 5685 5684 5683 5682 5681 5680 5679 5678 5678 5677 5675 5674 5673 5671 5670 5669 5667 5666 5665 5664 5663 5662 5662 5661 5660 5660 5659 5659
5691 5690 5690 5690 5689 5689 5689 5689 5688 5688 5688 5687 5687 5686 5685 5684 5683 5682 5681 5680 5679 5678 5677 5676 5675 5673 5672 5671 5669 5668 5666 5665 5664 5663 5662 5661 5660 5660 5659 5659 5658 5658 5657
5692 5692 5691 5691 5690 5690 5690 5689 5689 5689 5688 5687 5687 5686 5685 5684 5682 5681 5680 5679 5678 5677 5676 5675 5674 5672 5671 5669 5668 5666 5664 5663 5662 5661 5660 5660 5659 5659 5658 5658 5657 5657 5657
5694 5694 5693 5692 5692 5692 5691 5691 5690 5690 5689 5688 5688 5687 5685 5684 5683 5682 5681 5680 5678 5677 5676 5675 5674 5672 5670 5668 5666 5665 5663 5662 5661 5660 5659 5659 5659 5658 5658 5657 5657 5657 5657
5697 5696 5696 5695 5694 5694 5694 5693 5692 5692 5691 5690 5689 5688 5687 5685 5684 5683 5682 5681 5679 5678 5677 5675 5674 5672 5670 5668 5666 5664 5663 5661 5660 5660 5659 5659 5659 5658 5658 5658 5658 5658 5658
5700 5699 5699 5698 5698 5697 5696 5696 5695 5694 5693 5692 5691 5690 5689 5687 5686 5685 5683 5682 5681 5680 5678 5676 5674 5672 5670 5668 5666 5664 5663 5662 5661 5661 5660 5660 5660 5659 5659 5659 5659 5659 5658
5704 5703 5703 5702 5701 5700 5699 5699 5698 5697 5696 5695 5693 5692 5691 5689 5688 5687 5686 5684 5683 5681 5679 5677 5675 5673 5671 5669 5667 5666 5664 5663 5662 5662 5662 5661 5661 5661 5660 5660 5660 5659 5659
5707 5707 5706 5706 5705 5704 5703 5702 5701 5700 5699 5698 5696 5695 5694 5692 5691 5689 5688 5686 5684 5683 5681 5679 5677 5675 5673 5671 5669 5668 5666 5665 5665 5664 5663 5663 5662 5662 5661 5661 5660 5660 5660
5712 5711 5710 5710 5709 5708 5707 5706 5705 5704 5702 5701 5700 5698 5697 5695 5693 5692 5690 5688 5687 5685 5683 5681 5679 5677 5676 5674 5672 5671 5669 5668 5667 5666 5665 5665 5664 5663 5663 5662 5661 5661 5660
5716 5715 5714 5714 5713 5712 5710 5709 5708 5707 5706 5704 5703 5702 5700 5698 5697 5695 5693 5691 5689 5687 5686 5684 5682 5680 5678 5677 5675 5673 5672 5671 5669 5668 5667 5667 5666 5665 5664 5663 5662 5661 5660
5720 5720 5719 5718 5717 5715 5714 5713 5712 5711 5709 5708 5706 5705 5703 5701 5700 5698 5696 5694 5692 5690 5688 5687 5685 5683 5681 5679 5678 5676 5675 5673 5672 5671 5669 5668 5667 5666 5665 5663 5662 5661 5660
5725 5724 5723 5721 5720 5719 5718 5717 5715 5714 5713 5711 5710 5708 5706 5704 5702 5701 5699 5697 5695 5693 5691 5689 5687 5686 5684 5682 5680 5678 5677 5675 5673 5672 5670 5669 5668 5666 5665 5663 5662 5660 5658
Wind_Speed
24 23 23 23 23 23 23 24 25 26 27 27 26 26 26 26 27 27 27 27 28 29 30 30 30 30 30 31 32 32 32 33 34 34 35 36 36 36 36 37 38 39 39
23 23 23 22 23 23 23 24 24 25 26 27 26 27 27 27 26 27 27 28 28 28 29 30 30 30 30 31 31 32 32 33 33 34 34 35 36 36 37 38 37 37 38
21 22 22 23 23 23 22 22 23 24 24 25 25 26 26 26 26 26 26 26 26 27 27 28 28 28 29 30 31 32 32 32 33 33 34 34 35 36 36 36 36 35 35
19 20 21 21 22 22 22 22 22 22 23 23 23 24 25 25 25 25 25 25 26 26 26 26 27 27 28 29 30 31 31 31 32 32 33 34 34 34 35 34 34 33 33
18 18 18 19 19 20 19 20 20 21 21 21 20 21 22 23 23 24 24 24 24 24 24 24 25 26 27 28 29 29 29 30 31 32 33 33 33 32 32 32 31 31 30
16 15 16 16 17 18 18 18 19 19 19 19 18 19 19 20 20 21 22 22 22 22 23 24 25 25 26 27 27 28 29 30 30 31 31 31 31 31 30 29 29 28 28
14 13 14 14 15 15 15 16 16 16 16 17 17 17 18 18 18 19 19 20 20 21 22 23 24 24 25 25 26 27 28 28 29 29 28 28 28 27 27 26 26 26 26
12 11 11 12 12 12 12 13 14 15 15 15 16 16 16 16 17 18 18 19 19 20 21 21 22 23 24 24 25 25 26 26 26 26 26 25 25 24 24 24 24 24 24
11 10 11 11 11 11 12 12 13 13 13 13 14 14 14 15 16 17 17 18 18 19 20 20 21 22 22 23 23 24 24 24 24 23 22 22 22 22 22 22 22 21 21
9 9 9 10 10 10 11 11 11 12 12 13 12 13 13 13 13 14 15 16 17 18 18 19 20 20 21 21 21 22 22 21 21 20 20 20 20 20 20 19 19 18 17
7 7 8 8 8 8 9 10 9 10 10 11 11 12 12 11 11 12 13 14 14 15 16 16 17 17 18 19 19 19 18 18 18 18 19 19 19 18 18 17 16 15 15
5 5 6 6 6 6 6 7 7 8 8 8 9 9 9 10 10 11 11 11 12 12 13 14 14 15 15 16 16 16 16 16 16 16 16 16 16 16 15 15 14 13 13
3 3 4 4 4 3 4 4 4 5 5 6 6 7 7 8 8 9 9 9 10 11 11 12 12 12 13 13 14 14 14 14 14 14 14 13 13 13 13 12 11 11 11
2 3 2 2 2 2 1 1 1 2 3 3 4 5 5 6 6 7 7 8 8 8 9 9 10 11 11 12 12 12 12 12 12 12 12 12 12 11 11 10 10 9 9
2 2 2 2 1 1 2 2 2 2 2 2 3 3 4 4 5 6 6 6 6 6 6 7 8 9 9 10 10 10 11 11 11 10 10 10 9 9 9 8 8 7 6
4 4 4 4 4 4 4 4 3 3 3 3 3 4 4 4 5 5 5 5 4 5 5 6 7 8 8 9 9 9 9 9 9 8 8 7 7 7 6 6 5 5 4
7 6 6 6 6 6 6 6 6 6 6 5 5 5 5 5 5 5 5 4 4 4 5 6 6 7 8 8 8 8 8 7 7 6 5 5 5 4 4 4 3 2 1
9 9 9 9 9 9 8 8 8 8 7 7 7 7 7 7 7 7 6 6 6 5 6 6 7 7 8 8 7 7 6 5 4 4 3 2 2 2 2 2 1 1 1
11 11 11 11 11 11 11 10 10 9 9 9 9 9 9 9 9 8 8 8 7 7 7 7 8 8 8 8 7 6 5 4 3 2 1 1 1 1 2 2 2 2 2
13 13 13 13 13 13 12 12 12 12 11 11 10 10 10 10 10 10 10 9 9 8 9 9 9 9 9 8 8 7 6 4 3 3 3 3 2 2 3 3 3 2 2
14 14 14 14 14 14 14 14 14 13 13 12 12 12 11 11 11 11 10 10 10 10 10 10 10 10 10 10 9 8 7 6 5 5 4 4 3 3 3 3 3 3 2
15 15 15 15 15 15 15 14 14 14 14 14 13 13 12 12 12 12 11 11 11 11 11 11 11 11 11 11 10 10 9 8 7 6 5 5 4 4 3 3 3 3 3
16 16 16 15 15 15 15 15 14 14 14 14 14 14 14 14 13 13 12 12 12 12 12 12 12 12 12 11 11 10 10 9 8 7 6 5 5 4 4 3 3 3 3
16 16 17 17 16 16 16 15 15 15 15 14 14 14 14 14 14 14 14 13 13 13 13 13 13 12 12 12 11 11 10 9 9 8 7 6 5 5 4 4 4 4 4
17 17 17 17 16 16 16 16 15 15 15 14 14 14 14 14 14 14 14 13 13 13 13 13 13 12 12 12 11 11 10 9 8 7 6 6 5 5 5 5 5 6 7
16 16 16 16 16 16 16 16 16 15 15 15 15 15 14 14 14 13 13 13 13 13 13 12 12 12 12 12 11 10 9 9 8 7 7 6 6 6 6 7 8 8 9
Wind_Direction
271 269 267 266 266 264 262 261 262 262 262 262 260 259 259 261 262 262 262 261 261 261 261 263 264 265 265 267 268 270 271 274 276 279 281 282 283 285 286 287 289 290 290
270 268 265 265 264 262 262 261 262 263 262 261 259 259 261 262 263 262 262 263 261 262 262 264 264 265 265 267 270 271 273 276 278 279 281 282 284 285 286 287 289 290 291
271 269 267 266 264 261 260 260 261 262 261 259 259 259 259 259 260 261 263 262 260 259 261 262 263 265 266 268 270 272 275 277 278 280 281 282 283 284 286 287 289 289 290
272 270 268 266 262 259 258 259 259 259 258 256 256 257 257 258 260 261 261 261 261 261 262 263 263 266 269 271 272 274 275 277 279 280 281 282 284 286 287 288 288 289 289
272 271 268 263 261 259 258 258 258 259 259 258 258 260 259 259 260 260 261 262 262 263 263 265 268 270 272 273 275 276 277 278 280 281 282 283 285 286 286 287 287 288 288
270 270 269 266 262 261 261 260 260 261 260 261 260 260 259 260 261 261 261 261 261 262 265 268 269 271 273 274 275 276 277 279 281 282 283 284 285 285 286 286 286 288 288
267 267 267 266 265 263 262 261 260 262 263 264 262 262 260 262 262 262 263 263 264 266 268 269 270 272 273 275 275 277 279 280 281 282 283 284 284 284 285 286 287 288 289
270 270 270 268 265 262 259 258 260 260 263 264 263 265 262 260 259 259 261 263 265 266 268 268 271 272 274 275 277 278 279 280 281 281 281 281 283 284 285 286 287 288 289
270 268 269 269 266 263 263 262 261 261 262 263 264 263 259 258 259 259 260 261 263 266 268 270 271 273 274 275 276 277 278 280 280 280 281 281 282 283 285 286 288 289 290
266 266 270 269 268 266 266 267 267 266 264 262 261 260 261 259 260 261 261 262 265 267 270 272 274 275 276 278 279 279 279 280 281 282 283 283 283 284 285 287 288 289 289
268 269 273 274 271 267 267 268 267 264 261 258 260 260 262 262 264 266 266 267 268 271 273 275 277 278 279 280 281 282 282 283 283 284 284 284 284 284 286 287 288 288 289
273 276 278 278 279 273 265 261 260 261 262 263 264 265 265 266 269 273 274 274 275 277 278 279 279 280 281 283 284 285 286 287 288 288 287 287 286 286 287 288 288 288 287
292 287 287 285 290 282 274 270 266 266 270 271 273 275 276 277 280 282 282 282 283 283 283 282 282 284 285 287 288 287 287 288 289 289 289 289 290 289 288 287 286 286 285
323 319 319 322 317 303 286 284 290 297 294 290 287 290 293 294 294 296 294 293 292 289 287 287 289 291 292 292 293 293 292 292 292 292 292 292 292 289 287 285 285 284 284
17 8 8 7 10 34 42 34 23 11 356 340 329 324 323 321 317 314 311 308 304 301 299 300 301 303 305 305 303 302 300 298 295 294 293 294 293 292 289 286 286 285 284
52 55 59 68 72 68 61 55 52 46 40 34 22 9 358 351 345 340 337 333 328 324 320 320 320 319 317 315 313 311 309 305 301 298 296 295 296 296 293 290 291 290 286
64 66 67 70 72 70 68 65 64 61 56 50 40 32 27 21 15 9 6 4 1 357 351 346 342 337 331 326 322 319 315 310 306 303 300 298 300 301 301 303 304 304 298
67 70 72 72 72 71 70 68 68 65 59 56 51 46 44 42 38 36 35 32 30 23 13 4 357 351 347 342 337 333 329 324 318 313 311 310 314 320 330 346 5 46 80
74 74 75 74 73 71 71 70 68 66 63 60 56 52 49 48 48 47 44 43 40 31 22 14 8 4 1 358 355 354 353 352 349 348 0 15 27 43 54 64 74 82 72
75 74 75 75 74 71 69 68 67 65 63 60 57 55 53 53 52 50 48 45 40 33 27 22 18 14 14 14 15 17 21 27 38 53 65 65 66 72 76 79 79 75 63
77 76 75 74 73 72 71 70 68 65 63 60 58 57 56 54 52 51 48 44 39 34 31 29 28 28 28 29 32 37 41 49 58 65 67 66 66 69 74 74 69 62 48
78 76 75 74 74 73 72 70 68 66 64 62 60 58 57 54 52 49 47 43 41 39 38 38 37 38 38 40 42 45 48 53 58 61 62 61 62 65 65 62 55 41 27
78 78 77 75 74 73 71 70 68 66 64 61 59 57 55 53 51 49 47 45 43 43 43 42 42 41 42 42 43 45 47 49 51 53 55 57 56 53 49 44 37 24 6
77 77 76 74 72 71 69 68 66 64 62 59 56 54 53 51 49 48 47 46 45 45 45 44 43 42 42 42 43 44 46 47 49 50 50 47 42 37 32 25 13 359 344
76 75 74 72 70 69 68 67 65 62 60 57 54 52 50 49 47 46 45 44 43 43 43 42 41 41 41 41 41 42 42 42 41 38 35 30 23 15 6 357 347 336 328
73 72 71 70 68 67 66 64 62 60 58 55 53 51 49 47 46 45 43 42 40 39 38 37 37 36 35 33 33 32 30 27 24 19 13 7 359 352 344 337 331 326 322